User: anonymous   Login
Location: Unspecified
(0.0000°N, 0.0000°E)
Time: 20:21:35
(UTC+00:00)
Language:

NOSS 3-3 (A) - Orbit

View from above orbital plane
View from above orbital plane
View from above satellite
View from above satellite

Ground track
Ground track

The orbit data is extracted from the following two-line orbital elements,

1 28537U 05004A   17316.76330915 0.00000000  00000-0  00000-0 0    09
2 28537  63.4244 169.7103 0276000 358.0624   1.9376 13.40735725    03
Epoch (UTC): 12 November 2017 18:19:09
Eccentricity: 0.0276000
inclination: 63.4244°
perigee height: 900 km
apogee height: 1313 km
right ascension of ascending node: 169.7103°
argument of perigee: 358.0624°
revolutions per day: 13.40735725
mean anomaly at epoch: 1.9376°
orbit number at epoch: 0

The dashed part of the orbit path shows where the satellite is in the earth's shadow,  

DLR